Wind_Speed
17 17 17 16 16 15 15 14 12 11 10 9 9 8 6 6 5 5 4 3 2 2 2 3 3 3 2 3 3 4 5 5 5 5 5 5 5 6 7 8 9 10 11 12 13 14 15 16 17 17 18 19 20 20 20 20 19 19 19 20 20 21 22 23 23 24 24 25 25
16 16 15 15 15 14 14 13 12 11 10 9 8 7 6 5 5 4 4 3 2 1 2 3 3 3 3 3 3 4 5 6 6 6 6 6 6 6 7 8 9 10 11 13 14 14 15 16 17 18 19 20 20 21 21 20 20 20 20 21 21 22 23 23 23 24 24 24 24
16 15 15 15 14 14 14 13 12 11 10 9 8 7 6 5 4 4 3 2 1 2 3 4 4 4 3 4 4 5 6 6 6 7 7 7 7 7 8 9 10 11 12 13 14 15 16 17 18 19 19 20 21 21 21 21 21 21 21 22 22 23 23 23 23 23 23 23 24
16 15 15 14 14 13 13 13 12 11 10 9 9 8 7 6 4 3 2 1 1 2 4 5 5 5 5 5 5 5 6 7 7 8 8 8 8 8 9 9 10 11 12 13 14 15 16 17 18 19 20 20 21 21 22 22 22 22 22 22 23 23 23 23 23 23 23 23 24
16 15 14 14 13 13 12 12 11 11 10 10 9 9 8 6 5 3 2 1 1 3 4 5 5 6 6 6 6 6 7 8 8 9 9 9 9 9 10 10 11 11 12 13 14 15 16 18 18 19 20 21 21 22 22 22 22 22 23 23 23 23 23 23 23 23 23 24 25
16 15 14 13 13 12 12 11 11 10 10 9 9 9 8 7 5 3 2 0 2 3 4 5 6 6 6 7 7 7 8 9 9 9 10 10 10 10 11 11 11 12 13 14 15 16 17 18 19 20 21 21 22 22 22 22 23 23 24 24 24 24 23 23 23 24 24 25 26
16 15 14 13 12 12 12 11 10 9 9 8 8 8 8 6 4 3 1 1 2 3 4 5 6 7 7 8 8 8 9 9 10 10 10 11 11 11 11 12 12 13 13 14 15 16 18 19 20 21 21 22 22 22 23 23 23 24 24 25 24 24 23 23 23 24 24 26 27
15 15 14 13 12 12 11 11 10 9 8 8 8 7 6 5 4 2 1 1 2 3 4 5 6 7 8 8 8 9 9 10 10 11 11 11 12 12 12 12 13 13 14 15 16 17 18 19 20 21 22 22 22 23 23 23 24 24 25 25 25 24 23 23 24 24 25 26 27
15 15 14 13 12 12 11 10 9 8 8 7 7 6 5 5 4 3 2 2 1 3 4 5 7 8 8 8 9 9 10 10 11 11 12 12 12 13 13 13 14 15 15 16 17 18 19 20 21 21 22 22 23 23 24 24 24 25 25 25 25 24 24 24 24 24 25 26 26
16 15 14 13 12 11 10 9 8 7 7 7 6 5 5 4 3 3 3 2 1 2 4 6 7 8 8 8 9 9 10 10 11 12 12 13 13 13 14 14 15 16 17 17 18 19 20 21 21 22 22 23 23 24 24 24 25 25 25 25 25 25 24 24 24 25 25 25 26
16 15 14 13 12 11 10 9 8 7 7 6 6 5 4 3 3 2 2 2 2 3 5 6 7 8 8 9 9 10 10 11 11 12 13 13 14 14 15 15 16 17 18 18 19 20 21 21 22 23 23 23 24 24 25 25 25 25 25 25 25 25 24 25 25 25 25 26 26
16 14 13 12 11 10 9 8 8 7 7 6 5 4 3 2 2 2 3 3 3 4 5 6 7 8 8 9 9 10 10 11 11 12 13 14 14 15 16 16 17 18 18 19 20 20 21 22 23 23 24 24 24 25 25 26 26 26 26 25 25 24 24 25 25 25 25 26 26
15 14 13 11 10 9 8 8 7 6 6 6 5 4 3 2 2 2 3 4 5 5 6 6 7 8 9 9 10 10 10 11 12 13 14 14 15 16 16 17 18 18 19 19 20 21 21 22 23 24 25 25 25 25 26 26 26 26 26 25 25 25 25 25 26 26 25 25 25
15 14 12 11 10 9 8 7 6 6 5 5 4 4 2 1 2 3 4 5 6 6 6 7 7 8 9 9 10 10 11 12 12 13 14 15 16 16 17 18 18 19 19 20 20 21 22 23 23 24 25 26 26 26 26 26 26 26 25 25 25 25 25 26 26 25 25 24 24
14 13 12 11 10 9 9 8 6 5 4 4 3 2 1 1 2 3 4 5 6 7 7 8 8 9 9 9 10 11 11 12 13 14 15 16 17 17 18 18 19 19 20 21 21 22 22 23 24 25 25 26 27 27 27 27 26 26 25 25 25 25 25 25 25 24 24 24 24
14 13 11 11 10 9 9 8 6 4 3 3 2 2 1 2 3 4 5 6 6 7 8 8 9 9 10 10 10 11 12 13 14 15 16 17 17 18 18 19 20 20 21 22 22 23 23 24 24 25 26 26 27 27 27 27 27 26 26 26 25 25 25 25 24 23 23 24 24
13 12 11 10 9 9 8 7 5 4 3 2 1 2 2 3 4 5 5 6 7 8 8 9 9 10 10 10 11 11 12 13 14 15 16 17 18 18 19 20 20 21 22 22 23 24 24 25 25 26 26 27 27 28 28 28 27 27 26 26 25 24 24 23 23 22 23 24 25
12 10 9 9 8 7 7 6 5 3 2 2 2 2 3 4 5 6 6 7 7 8 9 9 10 10 11 11 12 12 13 14 15 16 17 17 18 19 20 20 21 22 22 23 24 25 25 26 26 27 27 27 27 27 27 27 27 27 26 25 24 23 23 22 22 22 23 24 25
10 9 8 8 7 6 6 5 4 3 2 2 2 3 4 5 6 6 7 7 8 9 9 10 10 10 11 12 12 13 14 15 16 17 17 18 19 20 20 21 22 22 23 24 25 25 26 26 27 27 27 27 28 27 27 27 26 26 25 24 23 22 22 21 22 22 23 24 25
9 8 8 7 7 6 5 5 4 3 2 2 3 3 4 5 6 6 7 7 8 9 9 10 10 11 11 12 13 14 15 15 16 17 18 19 19 20 21 22 23 23 24 25 25 26 26 27 27 27 27 27 27 27 27 26 26 25 24 23 22 22 21 21 22 23 23 24 25
9 8 8 7 6 6 5 5 4 3 3 3 3 4 5 5 6 6 7 8 8 9 9 10 10 11 12 13 14 15 16 16 17 18 19 19 20 21 22 23 23 24 25 25 26 26 27 27 27 27 27 27 26 26 26 26 25 24 23 22 22 22 22 22 22 23 23 24 25
9 8 8 7 7 6 5 4 4 3 3 3 4 4 5 5 6 6 7 8 8 9 9 10 10 11 13 14 15 16 17 17 18 18 19 20 21 22 22 23 24 25 25 26 26 27 27 27 27 26 26 26 26 26 25 25 25 24 23 23 22 22 22 22 23 23 23 24 25
9 8 8 7 6 6 5 4 3 3 3 3 4 5 5 6 6 7 7 8 8 9 9 10 11 12 13 14 15 16 17 18 19 19 20 21 21 22 23 23 24 25 26 26 26 27 26 26 26 26 26 26 26 25 25 25 24 24 23 23 23 23 23 23 23 23 24 24 24
9 9 8 7 6 5 5 4 3 3 3 4 5 5 6 6 7 8 8 8 9 9 10 11 12 13 14 15 16 17 18 19 20 20 21 21 22 23 23 24 25 25 26 26 26 26 25 25 25 26 26 26 25 25 25 25 24 24 23 23 23 23 23 23 23 24 24 24 24
9 9 8 7 6 5 4 3 3 3 3 4 5 6 6 7 8 8 8 9 9 10 11 12 13 14 15 16 16 17 18 19 20 21 22 23 23 23 24 25 25 26 26 26 26 25 24 24 25 25 26 26 26 26 25 25 24 23 23 23 23 23 24 24 24 23 23 23 23
9 9 8 7 5 4 3 2 2 2 3 4 5 6 7 7 8 8 9 10 10 11 12 13 14 15 15 16 17 18 19 20 20 21 22 23 24 24 25 25 26 26 27 26 26 25 24 25 25 25 25 26 26 26 26 25 24 24 23 23 23 23 23 24 24 24 23 23 23
9 8 7 6 5 4 3 1 1 2 3 4 5 6 7 8 8 9 9 10 11 12 13 14 14 15 16 17 18 19 20 20 21 22 23 24 25 25 26 26 26 27 27 26 26 25 25 25 25 25 25 25 26 26 26 26 25 24 24 23 23 23 23 23 23 24 24 23 23
9 7 6 5 4 3 2 0 1 2 3 4 6 7 7 8 8 9 10 11 12 13 14 14 15 16 17 18 19 19 20 21 22 22 23 24 25 25 26 27 27 27 27 27 26 25 25 25 25 25 25 25 26 26 26 26 25 24 24 23 23 23 22 22 23 23 23 24 24
8 6 5 4 3 2 1 1 1 2 4 5 6 7 8 8 9 9 10 12 13 14 14 15 16 17 18 18 19 20 20 21 22 23 24 24 25 26 26 27 27 28 28 27 26 25 25 25 25 25 25 25 26 26 26 25 25 24 24 23 23 22 22 22 22 22 23 23 25
7 5 4 3 3 2 1 1 2 3 4 5 6 7 8 8 9 10 11 12 13 14 15 16 17 17 18 19 19 20 21 22 22 23 24 25 26 26 27 27 28 28 28 27 26 25 25 26 26 26 26 26 26 26 25 25 25 24 24 23 22 22 22 21 21 21 22 23 25
5 4 3 2 2 1 1 1 2 3 4 5 6 7 8 9 9 10 11 13 14 14 15 16 17 18 18 19 20 21 22 22 23 24 24 25 26 26 27 28 28 28 28 26 25 25 26 26 26 26 26 26 26 26 25 25 25 24 24 23 22 21 21 20 20 21 22 23 25
4 3 2 2 1 1 1 1 3 4 5 6 7 7 8 9 10 11 11 13 14 15 16 17 17 18 19 20 21 21 22 23 24 24 25 25 26 27 28 28 28 28 27 26 25 26 26 26 26 27 26 26 26 26 25 25 25 24 23 22 21 20 20 20 20 20 22 23 25
4 3 2 1 1 0 1 2 3 4 5 6 6 7 8 9 10 11 12 13 14 15 16 17 18 19 20 21 21 22 23 24 24 25 25 26 26 27 28 28 27 27 27 26 26 26 26 26 27 27 27 26 26 26 25 25 24 23 22 21 20 19 18 19 20 21 23 24 25
3 2 2 1 1 1 2 3 4 4 5 6 6 7 8 9 10 11 12 13 14 15 16 17 18 19 20 20 22 23 23 24 24 25 26 26 27 27 27 27 27 27 27 26 26 26 26 26 27 27 27 26 26 26 25 25 23 22 20 19 18 18 18 19 20 22 24 25 26
3 2 1 1 1 1 2 3 4 4 5 6 7 7 8 10 11 12 13 14 15 16 17 17 18 19 20 21 22 23 24 24 25 25 26 26 27 27 27 27 27 27 27 26 26 26 26 26 26 26 26 26 25 25 24 23 22 20 19 18 18 18 19 21 22 23 24 25 26
2 1 1 0 1 2 2 3 4 4 5 6 7 8 9 10 11 12 13 14 15 16 17 18 19 20 21 21 22 23 23 24 25 26 26 26 26 27 27 27 27 27 27 26 26 26 26 26 26 26 26 25 25 24 23 21 19 19 18 18 19 20 21 22 23 24 24 24 26
1 0 0 1 1 2 2 3 4 5 6 7 8 9 10 11 12 13 14 15 16 17 18 19 20 20 21 22 23 23 24 24 25 26 26 26 26 26 26 26 27 27 27 26 26 26 26 26 26 26 25 25 24 23 21 19 18 18 19 19 20 21 22 23 23 23 24 25 27
1 0 1 1 1 2 2 3 4 5 6 7 8 9 11 12 13 14 14 15 16 17 18 19 20 21 22 22 23 24 24 24 25 25 25 25 25 25 25 26 26 27 27 27 26 25 26 26 25 25 24 24 23 22 21 20 19 19 20 21 22 23 23 23 23 23 24 26 29
0 0 0 1 1 2 3 3 5 6 7 8 9 10 11 12 13 14 15 15 16 17 18 19 20 21 22 23 23 24 24 24 24 24 24 24 24 24 25 25 26 26 27 27 26 25 25 25 25 24 24 23 22 22 21 20 20 20 21 22 23 23 23 22 22 24 26 29 30
0 0 0 1 1 2 3 4 5 6 7 8 10 11 12 13 14 15 15 16 16 17 18 20 21 22 22 23 24 24 24 24 24 23 23 24 24 24 24 24 25 26 26 27 26 25 24 24 24 24 24 23 22 22 22 21 21 21 21 21 22 22 23 23 24 25 28 30 30
1 1 0 1 1 3 4 5 6 6 7 8 10 11 12 13 14 15 16 16 17 18 19 20 21 22 22 23 23 24 24 24 24 23 23 23 24 24 24 24 25 25 25 26 25 24 24 24 24 24 24 23 23 23 22 22 21 21 21 21 21 21 23 25 27 28 28 28 26
Wind_Direction
141 142 143 143 143 140 137 135 135 136 136 134 130 128 128 128 125 123 121 118 105 78 33 10 6 10 15 10 358 350 348 350 354 357 358 356 353 350 347 345 346 347 348 349 350 350 350 348 347 345 344 343 342 341 340 340 338 334 330 327 324 322 321 320 319 319 319 318 317
138 141 143 143 143 140 138 136 135 136 137 136 134 131 129 125 122 120 118 114 99 52 17 7 10 15 15 4 353 347 347 349 354 357 358 358 355 352 349 347 347 347 347 347 347 347 346 345 344 342 341 340 339 338 338 338 336 332 328 325 323 321 320 319 318 318 318 317 316
136 138 139 139 139 137 136 134 134 134 133 134 136 135 130 123 118 115 114 108 82 24 9 8 12 13 8 358 351 349 352 354 357 360 1 0 358 355 352 350 347 346 345 345 344 344 343 341 340 339 338 337 336 335 335 335 333 330 327 324 322 321 319 318 318 318 317 316 316
134 134 135 135 136 135 134 133 132 131 131 131 133 130 125 119 116 115 118 113 39 3 3 7 10 9 3 355 352 354 357 360 2 2 2 1 359 357 354 351 348 345 344 342 341 340 339 337 336 335 334 334 333 332 332 332 330 328 325 323 321 320 318 317 317 317 316 315 315
134 135 135 135 134 133 133 132 131 129 130 131 131 128 124 121 121 125 133 126 352 348 355 2 6 5 0 357 356 357 360 2 2 2 2 1 359 356 354 350 347 344 341 339 337 336 335 334 333 332 332 331 330 330 330 329 328 325 323 321 320 319 317 316 316 316 315 315 315
137 137 137 137 136 135 134 134 132 131 132 134 133 131 129 128 129 130 128 50 334 337 347 357 0 359 357 358 358 359 360 0 0 0 360 359 357 355 352 349 346 342 339 336 334 333 332 331 330 330 330 329 328 328 328 327 326 324 322 320 319 318 316 315 315 315 316 315 315
140 139 139 138 138 137 137 137 137 137 137 138 138 137 136 136 135 129 113 342 325 332 341 349 352 353 354 356 358 358 358 357 357 357 357 356 354 352 350 347 343 340 337 334 332 330 330 329 328 328 328 328 326 326 326 326 324 322 320 318 317 317 316 315 315 316 316 316 317
142 141 140 140 140 139 139 140 141 141 140 138 137 137 137 135 129 118 97 19 345 337 337 340 342 346 350 354 355 355 354 354 354 354 353 352 351 349 347 344 340 338 335 333 331 329 329 328 328 327 327 326 325 325 324 324 322 321 319 317 316 315 315 315 316 317 318 318 318
141 141 141 141 140 139 139 140 142 142 139 134 131 129 126 121 111 99 87 69 18 340 331 330 334 340 346 350 352 351 351 350 350 350 350 349 347 345 343 341 337 335 334 332 330 329 328 327 327 326 326 325 324 323 323 322 321 320 318 316 315 314 314 315 316 318 319 319 319
140 140 140 140 140 140 141 141 141 139 134 128 123 120 115 108 96 84 74 60 11 327 320 324 331 338 344 347 348 347 347 347 346 346 346 345 344 341 339 337 335 333 332 331 330 328 327 326 325 325 324 324 323 322 322 321 320 319 317 315 314 314 314 316 317 319 320 320 319
139 139 139 139 140 142 143 142 140 137 133 127 121 117 110 98 83 66 47 24 346 323 321 327 333 339 342 344 344 344 343 343 343 342 342 341 340 338 336 335 333 331 330 329 328 327 326 325 324 323 323 323 322 321 321 320 319 318 316 315 314 314 315 316 318 320 320 320 318
137 137 138 140 141 143 143 141 139 137 134 130 125 119 110 93 68 38 18 0 345 335 333 335 337 339 340 340 340 340 340 340 340 339 338 337 337 336 334 333 331 330 329 328 327 325 324 323 322 322 321 321 321 320 320 319 318 317 315 314 314 314 315 316 318 319 320 319 318
137 138 138 140 142 143 141 138 135 134 132 131 127 122 115 94 48 13 0 353 348 344 341 340 339 338 337 337 337 337 338 337 337 336 335 335 334 334 332 331 330 328 327 326 325 323 322 321 321 320 320 320 320 320 319 318 317 316 314 314 313 314 314 316 318 319 319 319 318
139 139 140 142 143 142 139 135 133 132 132 130 127 126 120 94 23 1 354 350 347 346 344 341 339 337 336 335 335 336 336 335 335 334 333 333 333 332 330 329 328 327 325 324 323 322 321 320 320 319 319 318 318 318 318 317 316 315 313 312 312 313 314 315 317 318 319 319 318
141 142 143 145 145 145 142 140 138 137 135 130 126 122 112 55 10 358 352 348 346 345 343 342 339 337 335 334 334 334 334 334 333 331 331 331 331 330 329 327 326 326 324 323 322 321 319 319 319 318 318 317 317 317 317 316 315 313 312 311 311 312 313 315 316 318 319 319 319
142 144 146 148 150 150 149 148 147 145 141 131 116 97 64 29 10 0 354 349 346 344 343 340 338 336 334 334 333 332 332 331 331 330 329 329 329 328 327 326 325 324 323 322 320 319 319 318 318 317 317 317 316 316 316 315 314 312 311 310 310 311 312 314 316 318 318 319 319
140 143 147 150 153 155 155 155 154 152 146 127 95 62 39 23 11 3 355 350 346 343 340 338 335 333 332 332 333 332 330 330 329 329 328 327 327 326 325 324 324 323 322 320 319 318 318 317 317 317 316 316 315 315 314 314 313 311 311 310 310 311 312 314 316 318 319 320 319
137 140 145 149 152 153 154 154 153 150 140 113 72 42 25 15 7 0 355 349 344 339 335 333 331 330 329 330 331 331 330 328 328 328 327 327 326 325 323 323 322 322 320 319 318 317 316 316 316 316 316 315 315 314 314 313 312 311 311 310 311 312 313 315 317 319 320 320 320
134 136 139 143 144 145 144 144 142 137 122 90 54 31 18 9 1 355 349 344 339 334 330 327 327 326 327 327 328 328 328 327 327 327 327 326 325 324 323 322 321 320 319 318 317 316 316 316 316 316 315 315 315 314 314 313 312 312 312 312 312 313 315 317 318 320 321 321 320
131 132 134 135 135 134 133 130 126 119 100 71 43 23 12 2 356 349 342 337 332 328 325 323 322 323 324 325 325 326 327 327 326 326 326 326 324 323 322 321 320 319 318 317 316 316 315 316 316 316 315 315 315 315 314 314 313 313 313 313 314 315 316 318 320 321 322 322 321
129 130 130 130 129 127 125 121 113 102 83 57 32 16 5 356 349 342 336 332 328 325 322 320 320 320 321 323 323 324 326 327 326 326 325 325 324 322 321 320 319 318 317 317 316 316 316 316 316 316 316 316 315 315 315 315 315 314 314 315 315 316 318 319 321 322 322 322 321
128 129 129 128 127 124 119 112 100 85 64 41 22 9 359 351 343 337 333 329 326 322 320 319 319 320 320 321 322 323 324 326 326 325 325 324 323 322 321 320 319 318 318 317 317 317 317 317 317 317 317 316 316 316 316 316 315 315 315 316 316 317 319 320 321 322 322 322 321
128 128 128 128 125 120 111 99 82 63 43 25 11 1 353 345 340 334 330 326 323 322 321 320 320 319 319 319 320 321 323 324 325 325 325 324 323 322 322 321 320 319 318 318 319 319 319 318 318 317 317 316 316 316 316 316 316 316 316 317 317 318 319 320 321 321 322 322 321
128 128 128 125 119 110 99 84 64 43 24 10 0 353 346 341 336 332 328 325 324 323 322 321 319 318 318 319 320 321 322 323 324 325 325 324 324 323 322 322 321 320 319 319 320 320 319 318 318 317 317 316 316 316 315 315 316 316 317 317 318 318 319 319 320 320 321 321 320
129 127 124 118 110 102 90 72 47 23 5 355 349 344 339 335 331 328 326 325 324 323 322 320 319 318 319 320 322 323 324 325 325 324 324 324 324 324 323 322 321 321 320 320 320 320 318 317 317 317 316 316 316 315 315 315 316 316 317 317 318 318 318 318 319 320 320 320 319
127 123 117 111 106 100 88 66 31 3 348 341 337 334 332 330 327 325 324 323 322 321 320 319 319 320 322 323 325 326 327 327 326 325 324 324 324 324 323 322 322 321 321 321 320 319 318 317 317 317 316 316 316 316 316 316 316 317 317 317 317 317 317 318 318 319 319 318 318
124 118 114 111 108 103 93 67 5 335 327 326 326 326 326 325 323 322 321 320 319 319 319 320 322 323 325 326 327 328 328 328 327 326 325 324 323 323 323 322 322 321 321 321 320 319 319 318 318 318 317 317 316 316 316 316 316 316 316 316 316 316 316 316 317 317 317 317 317
119 116 114 113 112 112 110 108 302 307 312 318 321 322 322 322 321 319 318 317 317 318 320 323 326 328 329 329 329 329 328 327 327 326 325 324 323 322 322 322 321 321 321 321 320 320 319 319 318 318 318 317 317 316 316 315 315 315 315 315 315 315 315 315 315 315 316 317 317
118 116 116 117 119 126 142 210 278 300 311 316 319 319 319 318 317 316 315 315 316 319 323 327 330 331 331 330 330 329 328 327 327 326 325 324 323 322 322 322 322 322 322 322 321 320 320 319 319 318 318 318 317 316 315 315 314 314 314 314 314 315 315 315 315 315 316 317 318
117 116 118 122 129 142 168 239 289 304 312 315 316 315 315 314 313 313 313 315 318 322 326 330 331 331 331 331 330 329 328 327 327 327 325 324 323 323 322 322 322 322 323 323 322 321 320 320 319 319 319 318 317 316 315 314 314 314 314 314 314 315 315 315 316 316 317 318 318
119 119 123 132 143 157 192 274 299 308 312 313 312 312 312 312 311 312 313 317 321 326 330 332 332 332 332 332 331 329 328 328 327 327 326 324 323 323 323 323 323 323 323 323 322 321 320 320 319 319 319 318 317 316 315 315 315 314 314 314 314 315 316 316 317 318 318 319 318
125 129 137 149 156 175 256 295 306 310 311 310 310 310 311 311 312 314 318 322 326 330 333 334 334 333 332 332 331 329 328 328 327 326 326 325 324 323 323 324 324 324 324 324 322 321 321 321 320 320 319 319 318 317 316 315 315 315 315 314 315 315 317 318 319 320 320 320 318
138 147 157 164 173 241 297 306 310 310 309 309 310 311 312 312 314 319 325 329 332 334 334 334 333 332 331 330 329 329 328 327 327 326 326 325 325 324 324 324 324 324 325 324 323 322 322 322 321 321 321 320 319 318 317 316 316 315 315 315 315 317 318 320 321 321 321 320 318
156 164 170 179 218 295 311 312 311 309 309 311 312 313 314 316 320 326 332 336 336 336 335 334 332 330 329 329 328 327 327 327 326 326 326 326 326 325 325 324 324 325 326 325 324 324 324 323 323 323 322 321 320 319 318 317 317 316 316 317 318 320 322 322 323 322 321 319 317
167 173 179 200 279 309 315 313 311 311 312 314 316 318 319 322 327 332 336 338 337 335 334 333 331 330 329 329 328 328 327 326 326 326 327 327 326 326 325 324 325 327 327 327 326 326 326 325 325 324 323 322 321 320 319 318 318 318 319 320 322 323 324 324 323 322 320 318 314
174 179 190 259 306 314 315 314 314 315 317 318 319 322 325 329 333 337 339 339 336 333 332 331 330 329 329 329 329 328 327 326 326 326 327 328 327 326 326 325 327 328 329 330 329 328 328 327 327 326 325 324 322 321 321 321 321 321 322 324 325 325 325 324 322 321 319 316 313
179 191 295 319 321 320 317 318 319 318 318 320 322 326 329 333 337 340 341 338 334 331 329 329 328 328 329 329 328 327 327 327 327 327 327 328 328 328 327 327 328 330 331 332 332 331 330 329 328 328 327 325 324 324 324 325 325 325 325 325 325 325 324 323 321 320 317 315 311
192 301 335 333 328 326 322 321 320 319 319 322 326 330 333 336 337 339 339 336 331 328 327 327 327 328 328 328 327 327 327 327 328 328 328 329 329 329 328 328 329 331 333 334 334 333 332 331 330 329 328 327 327 328 328 328 328 327 327 326 325 324 323 322 321 319 316 313 310
220 295 339 339 337 331 325 322 320 320 323 325 329 334 336 337 336 336 336 334 330 327 326 325 326 327 328 328 327 326 327 328 329 329 329 330 330 330 330 329 330 332 335 336 336 334 333 333 332 331 330 330 330 330 331 330 328 327 327 326 325 323 322 322 321 318 315 311 308
199 195 45 1 345 333 326 321 321 324 327 329 332 335 337 335 334 333 333 331 329 328 327 326 326 327 328 327 327 326 326 328 330 330 331 331 331 332 332 331 332 333 335 337 337 336 335 334 333 332 332 331 331 331 331 330 328 327 327 326 325 324 323 322 320 316 311 308 306
157 133 70 9 347 334 327 324 326 330 333 334 335 336 335 333 332 331 331 330 330 329 328 327 327 327 327 327 327 327 327 328 329 330 331 331 332 332 333 333 333 334 336 337 338 337 336 335 334 333 333 332 331 331 330 330 328 328 327 328 327 326 323 321 317 313 308 305 305
Height
782 782 783 784 785 785 786 787 787 788 789 789 789 790 790 791 791 791 791 792 792 792 792 792 792 791 791 791 790 790 790 789 789 788 787 787 787 786 786 785 785 784 784 783 783 782 782 781 780 780 779 778 778 777 777 776 775 774 774 773 772 772 771 770 770 769 768 767 767
782 783 784 784 785 786 786 787 787 788 789 789 789 790 790 790 791 791 791 792 792 792 792 792 791 791 791 790 790 790 789 789 788 788 787 787 786 786 785 785 784 784 783 783 782 782 781 780 780 779 778 778 777 776 776 775 775 774 773 772 772 771 770 769 769 768 767 767 766
782 783 784 784 785 786 786 787 787 788 788 789 789 790 790 790 791 791 791 791 791 791 791 791 791 791 790 790 790 789 789 788 788 787 787 787 786 786 785 784 784 783 783 782 782 781 781 780 779 778 778 777 776 776 775 774 774 773 772 772 771 770 769 768 768 767 766 765 765
783 783 784 784 785 786 786 787 787 788 788 789 789 790 790 790 790 791 791 791 791 791 791 791 791 790 790 790 790 789 789 788 788 787 787 786 786 785 785 784 784 783 782 782 781 781 780 779 779 778 777 777 776 775 774 773 773 772 772 771 770 769 768 767 767 766 765 765 764
783 783 784 784 785 786 786 787 787 787 788 788 789 789 790 790 790 790 790 791 791 791 791 791 790 790 790 790 789 789 788 788 787 787 787 786 785 785 784 784 783 783 782 782 781 780 780 779 778 777 777 776 775 774 773 773 772 771 771 770 769 768 767 767 766 765 764 763 763
783 783 784 784 785 786 786 786 787 787 787 788 788 789 789 789 790 790 790 790 790 790 790 790 790 790 790 789 789 788 788 787 787 787 786 786 785 784 784 783 783 782 782 781 780 780 779 778 777 777 776 775 774 773 773 772 771 770 769 769 768 767 767 766 765 764 763 762 762
782 783 784 785 785 785 786 786 787 787 787 788 788 788 789 789 789 790 790 790 790 790 790 790 790 790 789 789 788 788 788 787 787 786 786 785 785 784 783 783 782 782 781 780 780 779 778 777 777 776 775 774 773 772 772 771 770 769 768 767 767 766 765 765 764 763 762 761 760
782 783 784 785 785 786 786 786 787 787 787 788 788 788 788 789 789 789 790 790 790 790 790 790 789 789 789 788 788 788 787 787 786 786 785 785 784 783 783 782 782 781 780 780 779 778 777 777 776 775 774 773 772 772 771 770 769 768 767 766 765 765 764 763 762 762 761 760 759
782 783 784 785 785 786 786 786 787 787 787 787 787 788 788 788 789 789 789 789 789 789 789 789 789 789 788 788 788 787 787 787 786 785 785 784 784 783 782 782 781 780 779 779 778 777 777 776 775 774 773 772 772 771 770 769 768 767 766 765 764 763 763 762 762 761 760 759 758
782 783 784 785 785 786 786 786 787 787 787 787 787 787 788 788 788 788 789 789 789 789 789 789 789 788 788 788 787 787 787 786 786 785 784 784 783 782 782 781 780 779 778 778 777 776 776 775 774 773 772 772 771 770 769 768 767 766 765 764 763 762 761 761 760 759 758 757 757
782 783 784 784 785 786 786 787 787 787 787 787 787 787 787 787 788 788 788 789 789 789 789 788 788 788 788 787 787 787 786 786 785 784 784 783 782 782 781 780 779 778 777 777 776 775 775 774 773 772 771 770 770 769 767 767 766 765 764 762 762 761 760 759 759 758 757 756 755
782 783 784 784 785 786 786 787 787 787 787 787 787 787 787 787 787 788 788 788 788 788 788 788 788 787 787 787 787 786 786 785 784 784 783 782 782 781 780 779 778 777 777 776 775 774 773 773 772 771 770 769 768 767 767 765 764 763 762 761 761 760 759 758 757 757 756 755 754
782 783 784 784 785 786 786 786 787 787 787 787 787 787 787 787 787 787 788 788 788 788 788 788 787 787 787 787 786 786 785 784 784 783 782 782 781 780 779 778 777 777 776 775 774 773 772 772 771 770 769 768 767 766 765 764 763 762 761 760 759 758 757 757 756 755 754 753 752
782 783 783 784 785 785 786 786 786 787 787 787 787 787 787 787 787 787 787 787 787 787 787 787 787 787 787 786 786 785 784 784 783 782 782 781 780 779 778 777 777 776 775 774 773 772 772 771 770 769 767 767 766 765 764 763 762 761 760 759 758 757 756 755 755 754 753 752 751
782 783 783 784 785 785 786 786 786 786 787 787 787 787 787 787 787 787 787 787 787 787 787 787 787 786 786 786 785 784 784 783 782 781 781 780 779 778 777 776 775 775 774 773 772 771 771 770 769 767 767 765 764 763 762 762 761 760 759 758 757 756 755 754 753 752 752 751 750
782 782 783 784 784 785 785 786 786 786 786 787 787 787 787 787 787 787 787 787 787 787 787 786 786 786 785 785 784 784 783 782 781 781 780 779 778 777 776 775 774 773 772 772 771 770 769 769 768 767 766 764 763 762 761 760 759 758 757 757 756 755 754 753 752 751 751 750 749
782 782 783 784 784 785 785 785 786 786 786 786 787 787 786 786 786 786 786 786 786 786 786 786 785 785 785 784 783 783 782 781 780 780 779 778 777 776 775 774 773 772 772 771 770 769 768 767 766 766 764 763 762 761 760 759 758 757 756 755 754 754 753 752 751 750 749 748 747
782 782 783 784 784 784 785 785 785 786 786 786 786 786 786 786 786 786 786 786 786 785 785 785 785 784 784 783 783 782 781 780 780 779 778 777 776 775 774 773 772 772 771 770 769 768 767 766 765 764 763 762 761 760 759 758 757 756 755 754 753 752 752 751 750 749 748 747 746
782 782 783 783 784 784 784 785 785 785 786 786 786 785 785 785 785 785 785 785 785 785 785 784 784 784 783 782 782 781 780 780 779 778 777 776 775 774 773 772 772 771 770 769 768 767 766 765 764 763 762 761 759 758 757 756 755 754 753 752 752 751 750 750 749 748 747 746 745
782 782 782 783 783 784 784 785 785 785 785 785 785 785 785 785 785 785 785 785 785 784 784 784 783 783 782 782 781 780 779 779 778 777 776 775 774 773 772 772 771 770 769 768 767 766 765 763 762 762 760 759 758 757 756 755 754 753 752 751 751 750 749 748 747 747 746 745 744
781 782 782 783 783 784 784 784 785 785 785 785 785 784 784 784 784 784 784 784 784 784 783 783 783 782 782 781 780 779 778 778 777 776 775 774 773 772 772 771 770 769 768 767 766 765 763 762 761 760 759 758 757 755 754 753 752 751 751 750 749 748 748 747 746 745 745 744 742
781 782 782 783 783 784 784 784 784 784 784 784 784 784 784 784 784 784 784 784 783 783 783 782 782 782 781 780 779 778 777 777 776 775 774 773 772 772 771 770 769 768 767 766 764 763 762 761 760 759 758 756 755 754 753 752 751 750 749 748 747 747 746 746 745 744 743 742 742
781 782 782 783 783 783 784 784 784 784 784 784 784 784 783 783 783 783 783 783 783 783 782 782 781 781 780 779 778 777 777 776 775 774 774 773 772 771 770 769 768 767 766 765 763 762 761 760 759 757 757 755 754 753 752 751 750 749 748 747 746 745 745 744 743 742 742 741 740
781 782 782 783 783 783 783 783 784 784 783 783 783 783 783 783 783 783 783 782 782 782 782 781 781 780 779 778 778 777 776 775 774 773 772 772 771 770 769 768 767 766 765 764 763 762 761 759 758 757 755 754 753 752 751 750 749 748 747 746 745 744 743 742 742 741 740 739 738
781 782 782 782 783 783 783 783 783 783 783 783 783 783 783 783 782 782 782 782 782 782 781 780 780 779 778 778 777 776 775 774 773 772 771 770 770 769 768 767 766 765 764 763 762 761 760 759 758 756 755 753 752 751 750 749 748 747 745 744 743 742 741 740 740 739 739 738 737
781 782 782 782 782 782 783 783 783 783 783 782 782 782 782 782 782 782 782 782 781 781 780 780 779 778 777 777 776 775 774 773 773 772 771 769 768 767 767 766 765 764 763 762 761 760 759 758 757 756 754 752 751 749 748 747 746 745 744 743 742 741 740 739 738 737 737 737 736
781 781 782 782 782 782 782 782 782 782 782 782 782 782 782 782 782 782 781 781 781 780 780 779 778 777 777 776 775 774 773 772 772 771 770 769 767 767 766 765 764 763 762 761 760 759 758 757 756 754 753 752 750 748 747 746 745 744 743 742 741 740 739 738 737 736 735 734 734
781 781 781 782 782 782 782 782 782 782 782 782 782 782 782 782 782 781 781 781 780 779 779 778 777 777 776 775 774 773 772 772 771 770 769 768 767 766 765 764 763 762 761 760 759 758 757 756 754 753 752 751 749 747 746 745 743 742 742 741 740 739 738 737 736 735 734 733 732
781 781 781 781 781 781 781 781 781 781 781 781 781 781 781 781 781 781 780 780 779 779 778 777 776 775 775 774 773 772 772 771 770 769 768 767 766 765 764 763 762 761 760 759 758 757 756 754 753 752 751 749 748 746 745 743 742 741 740 739 738 737 736 735 734 733 732 732 730
780 780 781 781 781 781 781 781 781 781 781 781 781 781 781 781 781 780 780 779 778 778 777 776 775 775 774 773 772 772 771 770 769 768 767 766 765 764 763 762 761 760 759 758 757 756 754 753 752 751 749 748 747 745 744 742 741 740 739 737 737 736 735 734 733 732 732 731 729
780 780 780 780 781 781 781 780 780 780 781 781 781 781 781 780 780 780 779 778 778 777 776 776 775 774 773 772 772 771 770 769 768 767 767 765 764 763 762 761 760 759 758 757 756 755 753 752 751 749 748 747 745 744 742 741 740 738 737 736 736 735 734 733 732 732 731 730 728
779 780 780 780 780 780 780 780 780 780 780 780 780 780 780 780 780 779 778 778 777 776 775 775 774 773 772 772 771 770 769 768 767 767 766 765 763 762 761 760 759 758 757 756 755 754 752 751 749 748 747 745 744 742 741 740 738 737 736 735 734 734 733 732 731 730 729 728 727
779 779 780 780 780 780 780 780 780 780 780 780 780 780 780 779 779 778 778 777 776 776 775 774 773 772 772 771 770 769 768 767 767 766 765 764 763 762 760 759 758 757 756 755 754 752 751 750 748 747 745 744 742 741 739 738 737 736 735 734 733 733 732 731 730 729 728 727 726
779 779 779 779 779 779 779 779 780 780 780 780 780 780 779 779 778 777 777 776 776 775 774 773 773 772 772 771 770 769 767 767 766 765 764 763 762 761 759 758 757 756 755 754 753 751 750 748 747 745 744 742 741 739 738 737 736 735 734 733 732 732 731 730 729 728 727 726 725
778 779 779 779 779 779 779 779 779 780 780 779 779 779 778 778 777 777 776 776 775 774 773 773 772 772 771 770 769 768 767 766 765 764 763 762 761 760 758 757 756 755 754 753 752 750 749 747 746 744 742 741 739 738 737 735 734 733 732 732 731 730 730 729 728 727 726 725 724
778 778 778 778 779 779 779 779 779 779 779 779 779 778 778 777 777 776 776 775 774 773 773 772 772 771 770 769 768 767 766 765 764 763 762 761 760 759 757 756 755 754 753 752 751 749 748 746 745 743 741 740 738 737 736 734 733 732 732 731 730 729 728 727 727 726 725 724 722
778 778 778 778 778 779 779 779 779 779 779 778 778 777 777 777 776 775 775 774 773 773 772 771 771 770 769 768 767 766 766 765 763 762 761 760 759 758 756 755 754 753 752 751 750 748 747 745 744 742 740 739 737 736 734 733 732 732 731 730 729 728 727 727 725 724 723 722 720
777 777 778 778 778 778 779 779 779 778 778 778 777 777 776 776 775 775 774 774 773 772 771 771 770 769 768 767 766 765 765 764 763 762 760 759 758 757 756 754 753 752 751 750 748 747 746 744 743 741 740 738 737 735 734 732 732 731 730 729 727 727 726 726 724 723 722 720 718
777 777 778 778 778 778 778 778 778 778 778 777 777 776 776 775 774 774 774 773 772 772 771 770 769 768 767 766 765 764 763 763 762 761 760 759 758 757 755 754 752 751 750 749 748 747 745 744 742 741 739 738 736 735 733 732 731 730 729 728 727 726 725 724 723 722 720 718 716
777 777 777 778 778 778 778 778 778 777 777 777 776 776 775 774 774 773 773 772 772 771 770 769 768 767 766 765 764 763 762 762 761 760 759 758 757 756 755 753 752 750 749 748 747 746 744 743 742 740 739 737 736 734 733 732 730 729 728 727 726 725 723 722 722 720 718 715 714
777 777 777 778 778 778 778 777 777 777 777 776 776 775 774 774 773 773 772 772 771 770 769 768 767 766 765 764 763 762 761 760 760 759 758 757 756 755 754 752 751 749 748 747 746 745 744 742 741 740 738 737 736 734 733 731 730 728 727 726 726 724 723 721 720 718 716 713 712